Location: Morgantown
(40.9734°N, 80.6323°W)
Time: 00:26:18
(UTC+00:00)

Cosmos 1553 Rocket - Pass Details

Date: 29 October 2020
Orbit: 940 x 1009 km, 82.9° (Epoch: 03 December)

Event Time Altitude Azimuth Distance (km) Brightness Sun altitude
Rises 22:53:23 0° 167° (SSE) 3,713 7.0 -6.7°
Reaches altitude 10° 22:56:00 10° 162° (SSE) 2,761 6.3 -7.1°
Maximum altitude 23:02:01 47° 90° (E) 1,292 4.3 -8.3°
Drops below altitude 10° 23:07:58 10° 19° (NNE) 2,737 6.1 -9.4°
Sets 23:10:33 0° 14° (NNE) 3,678 6.8 -9.8°
